EW4337 Weather Reports


time (UTC)temp
F
wind
direction
speed
knots
gust
knots
rain 1hr
in
rain 24hr
in
rain mn
in
humidity
%
barometer
mb
20190120143703 33 59 0.0 0.0 0.00 0.01 0.01 84 1019.9
20190120142704 33 59 0.0 0.0 0.00 0.01 0.01 84 1019.8
20190120141704 33 73 0.0 1.7 0.00 0.01 0.01 84 1019.8
20190120140704 33 83 0.0 0.9 0.00 0.01 0.01 84 1019.8
20190120135704 33 84 0.0 2.6 0.00 0.01 0.01 84 1019.8
20190120134704 33 93 0.9 2.6 0.01 0.01 0.01 84 1019.8
20190120133705 33 56 0.9 1.7 0.01 0.01 0.01 84 1019.8
20190120132705 33 57 0.0 1.7 0.01 0.01 0.01 84 1019.8
20190120131704 33 56 0.0 2.6 0.01 0.01 0.01 85 1019.8
20190120130704 33 55 0.9 2.6 0.01 0.01 0.01 85 1019.8
20190120125705 33 105 0.0 0.9 0.01 0.01 0.01 86 1019.7
20190120124705 33 80 0.0 0.9 0.00 0.00 0.00 86 1019.7
20190120123704 33 96 0.0 0.0 0.00 0.00 0.00 87 1019.7
20190120122704 33 96 0.0 2.6 0.00 0.00 0.00 88 1019.7
20190120121704 32 90 0.9 2.6 0.00 0.00 0.00 88 1019.7
20190120120704 32 90 1.7 2.6 0.00 0.00 0.00 89 1019.8
20190120115704 32 55 0.0 2.6 0.00 0.00 0.00 89 1019.7
20190120114705 32 53 0.0 1.7 0.00 0.00 0.00 90 1019.6
20190120113704 32 103 0.0 1.7 0.00 0.00 0.00 91 1019.6
20190120112704 31 113 0.9 2.6 0.00 0.00 0.00 91 1019.4
20190120111705 31 83 0.0 2.6 0.00 0.00 0.00 92 1019.5
20190120110704 31 105 0.0 2.6 0.00 0.00 0.00 93 1019.5
20190120105702 30 103 2.6 4.3 0.00 0.00 0.00 94 1019.4
20190120104703 30 74 0.9 4.3 0.00 0.00 0.00 94 1019.4
20190120103702 29 91 1.7 2.6 0.00 0.00 0.00 95 1019.2
20190120102703 29 94 1.7 2.6 0.00 0.00 0.00 95 1019.2
20190120101703 28 83 0.0 2.6 0.00 0.00 0.00 95 1019.2
20190120100702 27 63 0.0 2.6 0.00 0.00 0.00 94 1019.1
20190120095703 26 93 0.9 2.6 0.00 0.00 0.00 94 1019.1
20190120094702 26 109 0.0 2.6 0.00 0.00 0.00 94 1019.0
20190120093702 25 89 0.0 2.6 0.00 0.00 0.00 94 1019.0
20190120092702 25 61 0.0 2.6 0.00 0.00 0.00 94 1018.9
20190120091702 24 67 0.0 0.0 0.00 0.00 0.00 94 1018.7
20190120090702 24 28 0.0 1.7 0.00 0.00 0.00 94 1018.7
20190120085703 23 90 0.0 0.0 0.00 0.00 0.00 94 1018.5
20190120084703 23 90 0.0 0.0 0.00 0.00 0.00 94 1018.3
20190120083703 23 61 0.0 0.0 0.00 0.00 0.00 94 1018.4
20190120082702 22 106 0.0 0.9 0.00 0.00 0.00 94 1018.1
20190120081702 22 106 0.0 0.0 0.00 0.00 0.00 93 1018.2
20190120080702 22 106 0.0 0.0 0.00 0.00 0.00 93 1018.0
20190120075703 22 106 0.0 0.0 0.00 0.00 0.00 93 1018.0
20190120074703 22 106 0.0 0.0 0.00 0.00 0.00 93 1017.9
20190120073703 22 106 0.0 0.0 0.00 0.00 0.00 93 1017.8
20190120072703 22 106 0.0 0.0 0.00 0.00 0.00 93 1017.7
20190120071703 22 106 0.0 0.0 0.00 0.00 0.00 93 1017.5
20190120070703 22 106 0.0 0.0 0.00 0.00 0.00 93 1017.4
20190120065703 22 106 0.0 0.0 0.00 0.00 0.00 93 1017.2
20190120064704 22 106 0.0 0.0 0.00 0.00 0.00 93 1017.2
20190120063704 22 106 0.0 0.0 0.00 0.00 0.00 92 1017.1
20190120062703 22 106 0.0 0.0 0.00 0.00 0.00 92 1017.0
20190120061703 22 106 0.0 0.0 0.00 0.00 0.00 92 1016.9
20190120060703 22 106 0.0 0.0 0.00 0.00 0.00 92 1016.9
20190120055702 22 106 0.0 0.0 0.00 0.00 0.00 92 1016.9
20190120054702 22 106 0.0 0.0 0.00 0.00 0.00 92 1016.8
20190120053704 22 106 0.0 0.0 0.00 0.00 0.00 92 1016.7
20190120052703 22 106 0.0 0.0 0.00 0.00 0.00 92 1016.8
20190120051703 22 106 0.0 0.0 0.00 0.00 0.00 92 1016.8
20190120050703 22 106 0.0 0.0 0.00 0.00 0.00 92 1016.7
20190120045703 22 106 0.0 0.0 0.00 0.00 0.00 92 1016.7
20190120044703 22 106 0.0 0.0 0.00 0.00 0.00 92 1016.6
20190120043703 22 106 0.0 0.0 0.00 0.00 0.00 91 1016.6
20190120042704 22 106 0.0 0.0 0.00 0.00 0.00 91 1016.7
20190120041704 22 106 0.0 0.0 0.00 0.00 0.00 91 1016.7
20190120040703 22 106 0.0 0.0 0.00 0.00 0.00 91 1016.6
20190120035703 22 106 0.0 0.0 0.00 0.00 0.00 91 1016.7
20190120034704 22 106 0.0 0.0 0.00 0.00 0.00 91 1016.6
20190120033703 22 106 0.0 0.0 0.00 0.00 0.00 91 1016.6
20190120032704 23 106 0.0 0.0 0.00 0.00 0.00 91 1016.6
20190120031703 23 106 0.0 0.0 0.00 0.00 0.00 91 1016.4
20190120030703 23 106 0.0 0.0 0.00 0.00 0.00 91 1016.5
20190120025703 23 106 0.0 0.0 0.00 0.00 0.00 91 1016.5
20190120024703 23 106 0.0 0.0 0.00 0.00 0.00 90 1016.5
20190120023704 23 106 0.0 0.0 0.00 0.00 0.00 90 1016.5
20190120022704 23 106 0.0 0.0 0.00 0.00 0.00 90 1016.5
20190120021704 23 106 0.0 0.0 0.00 0.00 0.00 90 1016.5
20190120020703 23 106 0.0 0.0 0.00 0.00 0.00 90 1016.5
20190120015704 23 106 0.0 0.0 0.00 0.00 0.00 89 1016.6
20190120014704 23 106 0.0 0.0 0.00 0.00 0.00 89 1016.6
20190120013704 24 118 0.0 0.0 0.00 0.00 0.00 89 1016.5
20190120012704 24 118 0.0 0.9 0.00 0.00 0.00 89 1016.5
20190120011705 24 118 0.0 0.0 0.00 0.00 0.00 89 1016.4
20190120010703 24 119 0.0 0.0 0.00 0.00 0.00 89 1016.5
20190120005704 24 118 0.0 0.0 0.00 0.00 0.00 89 1016.4
20190120004703 25 119 0.0 1.7 0.00 0.00 0.00 89 1016.4
20190120003704 25 117 0.0 5.2 0.00 0.00 0.00 89 1016.4
20190120002704 25 114 0.0 2.6 0.00 0.00 0.00 89 1016.4
20190120001704 25 119 0.0 1.7 0.00 0.00 0.00 89 1016.4
20190120000704 25 118 0.0 0.0 0.00 0.00 0.00 89 1016.4
20190119235704 25 118 0.0 2.6 0.00 0.00 0.00 89 1016.4
20190119234704 25 116 0.9 2.6 0.00 0.00 0.00 89 1016.3
20190119233704 25 113 0.0 1.7 0.00 0.00 0.00 89 1016.3
20190119232705 25 113 0.9 1.7 0.00 0.00 0.00 89 1016.4
20190119231708 25 113 0.9 2.6 0.00 0.00 0.00 89 1016.3
20190119230705 25 113 0.0 1.7 0.00 0.00 0.00 89 1016.3
20190119225704 25 113 0.0 0.0 0.00 0.00 0.00 89 1016.2
20190119224704 25 113 0.0 0.0 0.00 0.00 0.00 89 1016.2
20190119223704 25 101 0.0 0.0 0.00 0.00 0.00 89 1016.3
20190119222704 25 101 0.0 1.7 0.00 0.00 0.00 89 1016.3
20190119221705 25 101 0.0 0.0 0.00 0.00 0.00 90 1016.3
20190119220705 26 101 0.0 0.0 0.00 0.00 0.00 90 1016.3
20190119215701 26 101 0.0 0.0 0.00 0.00 0.00 89 1016.3
20190119214700 26 101 0.0 1.7 0.00 0.00 0.00 89 1016.4
20190119213701 26 101 0.0 2.6 0.00 0.00 0.00 90 1016.3
20190119212700 26 108 0.0 2.6 0.00 0.00 0.00 90 1016.3
20190119211700 26 121 0.0 2.6 0.00 0.00 0.00 90 1016.3
20190119210700 26 122 0.0 1.7 0.00 0.00 0.00 89 1016.3
20190119205700 27 122 0.0 1.7 0.00 0.00 0.00 90 1016.2
20190119204700 27 104 0.0 2.6 0.00 0.00 0.00 90 1016.2
20190119203701 27 115 0.9 1.7 0.00 0.00 0.00 89 1016.1
20190119202702 27 104 0.0 2.6 0.00 0.00 0.00 89 1016.1
20190119201701 27 99 0.9 2.6 0.00 0.00 0.00 89 1016.1
20190119200701 27 121 0.0 1.7 0.00 0.00 0.00 89 1016.0
20190119195701 27 117 0.0 5.2 0.00 0.00 0.00 89 1016.0
20190119194701 27 101 0.0 0.0 0.00 0.00 0.00 89 1016.1
20190119193701 27 117 0.0 0.0 0.00 0.00 0.00 89 1016.1
20190119192701 27 92 0.0 0.0 0.00 0.00 0.00 89 1016.0
20190119191701 27 102 0.0 0.0 0.00 0.00 0.00 89 1016.1
20190119190702 28 100 0.0 0.0 0.00 0.00 0.00 89 1016.1
20190119185701 28 100 0.0 0.0 0.00 0.00 0.00 89 1016.1
20190119184701 28 100 0.0 1.7 0.00 0.00 0.00 88 1016.1
20190119183701 28 102 0.0 1.7 0.00 0.00 0.00 88 1016.1
20190119182701 28 102 0.0 0.0 0.00 0.00 0.00 88 1016.1
20190119181701 28 102 0.0 0.0 0.00 0.00 0.00 88 1016.2
20190119180701 29 102 0.0 0.9 0.00 0.00 0.00 87 1016.1
20190119175702 29 102 0.0 0.9 0.00 0.00 0.00 87 1016.1
20190119174701 29 102 0.0 0.0 0.00 0.00 0.00 87 1016.1
20190119173702 29 102 0.0 0.0 0.00 0.00 0.00 87 1016.1
20190119172701 30 102 0.0 1.7 0.00 0.00 0.00 87 1016.1
20190119171701 30 102 0.0 0.0 0.00 0.00 0.00 86 1016.1
20190119170702 30 133 0.0 0.9 0.00 0.00 0.00 86 1016.1
20190119165701 30 148 0.0 0.0 0.00 0.00 0.00 86 1016.1
20190119164701 31 128 0.0 2.6 0.00 0.00 0.00 86 1016.1
20190119163701 31 128 0.9 2.6 0.00 0.00 0.00 86 1016.1
20190119162702 31 127 0.9 2.6 0.00 0.00 0.00 86 1016.2
20190119161701 31 118 0.0 2.6 0.00 0.00 0.00 86 1016.2
20190119160703 32 112 0.9 2.6 0.00 0.00 0.00 86 1016.1
20190119155701 32 123 0.9 2.6 0.00 0.00 0.00 86 1016.1
20190119154701 32 129 0.0 2.6 0.00 0.00 0.00 86 1016.2
20190119153701 32 100 0.9 2.6 0.00 0.00 0.00 86 1016.1
20190119152702 33 112 1.7 2.6 0.00 0.00 0.00 85 1016.1
20190119151701 33 97 0.9 2.6 0.00 0.00 0.00 85 1016.1
20190119150701 33 112 0.9 2.6 0.00 0.00 0.00 84 1016.2
20190119145701 33 123 0.9 5.2 0.00 0.00 0.00 84 1016.2
20190119144701 34 124 0.0 2.6 0.00 0.00 0.00 84 1016.3